Regional Weather Roundup
Issued by NWS

Home | Current Version | Previous Version | Graphics & Text | Print | Product List | Glossary On
Versions: 1 2 3 4 5 6 7 8 9 10 11 12 13 14 15 16 17 18 19 20 21 22 23 24 25 26 27 28 29 30 31 32 33 34 35 36 37 38 39 40 41 42 43 44 45 46 47 48 49 50
000
ASUS43 KMKX 282000
RWRWI

WISCONSIN REGIONAL WEATHER ROUNDUP
NATIONAL WEATHER SERVICE MILWAUKEE/SULLIVAN WI
300 PM CDT TUE JUL 28 2015

NOTE: "FAIR" INDICATES FEW OR NO CLOUDS BELOW 12,000 FEET WITH NO
SIGNIFICANT WEATHER AND/OR OBSTRUCTIONS TO VISIBILITY.

WIZ001-002-006>008-014>016-023>028-282100-
NORTHWEST WISCONSIN

CITY           SKY/WX    TMP DP  RH WIND       PRES   REMARKS
SUPERIOR ARPT  PTSUNNY   84  70  61 SW20G25   29.76S HX  88
ASHLAND        PTSUNNY   86  70  58 S13G23    29.80S HX  90
HAYWARD        PTSUNNY   82  67  60 S16       29.84S HX  84
SIREN          CLOUDY    83  69  61 SW13G20   29.82S HX  87
CUMBERLAND     PTSUNNY   79  68  69 S13       29.85R HX  81
RICE LAKE      PTSUNNY   80  69  70 S10G20    29.86R HX  83
CHETEK         PTSUNNY   80  71  74 S13G18    29.85S HX  83
LADYSMITH      CLOUDY    82  69  64 S13G20    29.88S HX  86
EAU CLAIRE     NOT AVBL
MENOMONIE      CLOUDY    81  71  70 S8        29.84S HX  85
NEW RICHMOND   CLOUDY    81  69  67 S12       29.84S HX  84
OSCEOLA        PTSUNNY   82  70  65 S13G20    29.85S HX  86
$$

WIZ003>005-009-010-017-018-282100-
NORTH CENTRAL WISCONSIN

CITY           SKY/WX    TMP DP  RH WIND       PRES   REMARKS
MANITOWISH WTR PTSUNNY   79  67  67 S14G22    29.90R HX  81
ARBOR VITAE    PTSUNNY   80  68  66 S12G22    29.91S HX  82
WOODRUFF       PTSUNNY   80  68  66 S12G22    29.91S HX  82
RHINELANDER    PTSUNNY   81  65  58 S13G20    29.93S HX  83
EAGLE RIVER    CLOUDY    77  62  60 S14       29.92S
LAND O LAKES   CLOUDY    78  64  61 S8        29.93F
PHILLIPS       CLOUDY    81  68  64 S12G18    29.88S HX  83
TOMAHAWK       PTSUNNY   79  66  66 S5G16     29.92R HX  81
MEDFORD        CLOUDY    78  69  73 S12G18    29.92R HX  80
MERRILL        NOT AVBL
$$

WIZ029-030-035-036-043>047-282100-
CENTRAL WISCONSIN

CITY           SKY/WX    TMP DP  RH WIND       PRES   REMARKS
WAUSAU         CLOUDY    83  66  56 S14       29.90R HX  85
MOSINEE        MOSUNNY   81  68  65 S10       29.92R HX  83
MARSHFIELD     CLOUDY    79  67  66 S12       29.92R HX  81
STEVENS POINT  CLOUDY    82  67  60 SE10G16   29.91R HX  84
WAUPACA        CLOUDY    85  66  52 SE10      29.88F HX  87
WAUTOMA        NOT AVBL
WISC RAPIDS    CLOUDY    82  68  62 SW6       29.91R HX  85
CAMP DOUGLAS   NOT AVBL
$$

WIZ011>013-019>022-031-037>040-048>050-282100-
NORTHEAST WISCONSIN

CITY           SKY/WX    TMP DP  RH WIND       PRES   REMARKS
ANTIGO         PTSUNNY   81  66  60 S13G22    29.95R HX  83
SHAWANO        CLOUDY    84  66  53 S6        29.90F HX  86
OCONTO         CLOUDY    84  67  56 S7        29.91S HX  86
STURGEON BAY   CLOUDY    82  63  51 S16G22    29.96S HX  83
GREEN BAY      CLOUDY    86  62  44 SE16      29.90F HX  86
MANITOWOC      NOT AVBL
APPLETON       PTSUNNY   84  57  39 SE18      29.90F HX  83
CLINTONVILLE   CLOUDY    82  63  51 S12       29.89F HX  83
OSHKOSH        CLOUDY    85  64  49 S12G23    29.88F HX  86
$$

WIZ032>034-041-042-053>061-282100-
SOUTHWEST WISCONSIN

CITY           SKY/WX    TMP DP  RH WIND       PRES   REMARKS
LA CROSSE      PTSUNNY   82  72  71 S10       29.83S HX  87
SPARTA         CLOUDY    79  70  74 S6        29.88S HX  81
VIROQUA        PTSUNNY   76  71  84 S8        29.89F
BOSCOBEL       CLOUDY    80  73  79 SE5       29.86R HX  84
PRAIRIE DU CHI CLOUDY    77  69  76 CALM      29.85S
PLATTEVILLE    CLOUDY    76  74  93 SE9       29.86S
$$

WIZ056-057-062-063-064-067-068-282100-
SOUTH CENTRAL WISCONSIN

CITY           SKY/WX    TMP DP  RH WIND       PRES   REMARKS
REEDSBURG      CLOUDY    79  73  82 SE5       29.87F HX  82
BARABOO/DELLS  CLOUDY    79  71  75 SE3       29.89F HX  82
LONE ROCK      NOT AVBL
MINERAL POINT  CLOUDY    79  73  83 SE6       29.89R HX  82
MADISON        CLOUDY    83  70  64 S16       29.87F HX  87
MIDDLETON      CLOUDY    82  70  68 S9        29.89F HX  85
WATERTOWN      CLOUDY    83  72  68 S12       29.89F HX  88
MONROE         CLOUDY    79  72  78 SE13      29.87F HX  82
JANESVILLE     PTSUNNY   86  72  62 SE16      29.87F HX  92
$$

WIZ051-052-058>065-066-070>072-282100-
SOUTHEAST WISCONSIN

CITY           SKY/WX    TMP DP  RH WIND       PRES   REMARKS
MILWAUKEE      PTSUNNY   83  66  56 SE15      29.93F HX  85
WAUKESHA       MOSUNNY   84  66  54 S10G17    29.94F HX  86
MILWAUKEE/TIMM MOSUNNY   84  61  45 E12       29.94F HX  84
RACINE         MOSUNNY   83  65  54 SE14      29.96F HX  85
BURLINGTON     PTSUNNY   85  69  57 S6        29.94F HX  89
KENOSHA        MOSUNNY   85  69  58 SE13      29.95F HX  89
FOND DU LAC    CLOUDY    86  66  51 S10G20    29.89F HX  88
SHEBOYGAN      MOSUNNY   83  66  56 SE13      29.93F HX  85
WEST BEND      PTSUNNY   82  61  47 SE12      29.94F HX  83
JUNEAU         CLOUDY    83  69  62 SE13G20   29.92F HX  87
$$

LSZ147-162-282100-
LAKE SUPERIOR

STATION/POSITION TIME  TEMP    WIND        PRES    WAVE
                       AIR SEA DIR/SP/G            HT/PER
                 (UTC) (F)     (DEG/KT/KT) (MB)    (FT/S)
W MID LAKE BUOY  1850   67 62  110/ 12/ 14 1009.1F   2/ 3
DEVILS ISLAND    1900   81     170/  9/ 12 1008.0F
SAXON HARBOR     1900   83                 1008.8
$$

LMZ867-665-643>646-282100-
LAKE MICHIGAN

STATION/POSITION TIME  TEMP    WIND        PRES    WAVE
                       AIR SEA DIR/SP/G            HT/PER
                 (UTC) (F)     (DEG/KT/KT) (MB)    (FT/S)
CHAMBERS ISLAND  1900   82     140/  4/ 11 1013.2F
S GREEN BAY BUOY 1900   81 76  160/ 12/ 14 1014.5
N MID LAKE BUOY  1850   72 71  190/  8/  8 1014.8F   0
NORTHPORT PIER   1900   75     140/  9/ 11 1014.2F
SISTER BAY       1914   83     170/ 13/ 17   N/A
ALGOMA LAKESHORE 1827             CALM       N/A
KEWAUNEE LAKESHO 1900   67     170/  9/  9 1013.8F
SHEBOYGAN LAKESH 1900   72     160/ 12/ 12 1014.5F
PORT WASHINGTON  1940   78     180/  4/  8 1014.6F
ATWATER BUOY     1900   72     140/ 12/ 14 1016.2F
MILWAUKEE LAKESH 1900   72     130/ 13/ 14   N/A
KENOSHA   LAKESH 1900   77     140/  7/  8 1014.9F
$$

TC  - TEMPERATURE IN CELSIUS
VSB - VISIBILITY IN STATUTE MILES
WCI - WIND CHILL INDEX
HX  - HEAT INDEX



USA.gov is the U.S. government's official web portal to all federal, state and local government web resources and services.